Wind_Speed
6 6 6 5 3 3 3 3 3 4 5 6 6 6 7 7 7 7 7 8 8 7 7 7 7 7 7 7 7 8 8 9 9 9 9 9 9 9 9 9 9 9 9
7 6 5 4 3 3 3 3 3 3 3 4 5 6 6 7 7 6 7 7 7 7 7 7 7 8 7 8 7 7 7 8 8 8 9 9 10 10 9 10 10 10 10
7 6 5 4 3 3 3 3 3 3 3 3 4 5 6 6 5 5 5 6 6 7 7 7 7 7 7 7 7 7 7 7 7 8 8 9 9 9 9 10 10 10 11
7 7 5 4 3 3 3 3 2 3 3 3 3 5 5 6 5 5 5 5 5 5 5 6 6 6 6 6 7 6 7 7 7 7 7 8 8 9 9 9 9 10 10
8 6 6 5 3 3 3 2 2 2 2 3 4 4 5 5 5 5 4 4 5 5 5 5 5 5 5 5 5 6 6 6 6 6 7 7 8 8 8 9 9 9 9
9 8 7 6 4 4 3 3 2 2 2 3 3 3 4 4 5 5 4 4 4 4 5 5 4 5 5 5 5 5 5 5 6 6 6 6 7 7 8 9 9 9 9
9 9 7 6 5 4 3 2 2 2 3 3 3 3 2 2 3 5 6 5 3 3 3 4 3 3 4 4 5 5 5 5 7 6 6 7 7 7 8 9 9 9 9
9 9 8 7 6 6 4 3 2 3 3 3 3 3 2 2 3 4 5 4 3 3 3 3 3 3 3 3 4 5 6 5 6 6 6 7 7 8 8 9 9 10 10
9 9 8 8 7 6 6 5 5 4 3 3 3 3 3 2 2 2 3 3 2 2 3 3 3 3 3 3 4 5 6 6 7 6 6 7 8 8 8 9 10 10 11
10 9 9 9 8 7 6 5 4 3 3 3 4 4 4 3 3 3 2 2 2 2 3 3 2 3 3 3 4 6 6 6 6 6 6 6 8 9 9 9 9 10 11
10 9 9 10 9 8 6 6 4 3 3 4 4 5 4 4 3 2 1 1 1 1 2 2 2 2 3 3 4 5 5 5 5 5 6 6 7 8 9 9 9 10 11
9 9 10 10 9 8 7 6 6 5 5 5 5 5 5 5 4 3 2 1 1 1 1 0 1 2 2 3 4 4 4 4 4 5 5 6 6 7 7 8 8 7 9
9 9 9 10 10 9 8 8 8 7 6 6 6 5 5 5 4 4 4 3 3 2 1 0 1 1 2 2 3 3 4 4 4 5 5 6 6 7 8 7 6 6 7
9 9 9 9 10 10 9 9 9 8 8 7 6 6 6 5 5 5 5 4 3 2 1 1 0 1 2 3 4 4 3 4 4 6 6 6 7 7 8 7 7 6 6
9 9 9 9 9 10 9 9 9 9 8 7 7 6 6 5 5 4 4 4 3 2 1 0 1 1 1 3 4 4 4 4 5 6 6 6 7 8 8 7 7 7 7
9 9 9 9 9 9 9 8 8 8 8 8 7 7 6 5 5 5 5 4 4 3 1 1 2 2 2 3 2 2 3 4 5 6 6 6 7 8 8 9 8 8 8
9 8 8 9 9 9 8 8 8 8 7 7 7 7 6 6 6 6 5 5 4 3 2 2 2 2 2 2 2 2 3 4 4 5 5 5 6 7 8 8 8 8 8
9 8 8 9 8 8 9 9 9 9 8 7 6 7 7 7 7 7 7 6 5 4 3 3 2 2 2 3 3 3 3 4 4 5 6 6 7 7 8 8 9 9 9
9 8 8 8 8 8 8 8 8 7 7 7 7 7 7 7 7 7 7 7 7 6 5 5 4 3 4 4 4 4 5 5 5 6 7 8 8 9 9 9 9 10 11
8 8 8 8 8 7 7 6 6 7 6 6 6 7 7 7 8 7 8 8 8 7 6 6 5 5 6 6 6 6 6 7 7 8 9 10 10 10 10 10 10 11 12
7 8 8 7 8 7 6 5 6 6 6 6 7 7 7 7 8 7 8 8 8 7 8 8 7 7 7 7 8 8 8 8 9 10 11 11 11 10 10 10 11 12 12
6 7 7 7 8 8 7 6 6 6 6 7 7 8 8 9 9 8 9 9 9 8 8 8 8 8 8 9 9 10 10 10 10 11 11 12 12 12 12 12 12 12 13
5 6 6 6 7 8 8 9 8 7 7 8 8 9 9 10 10 10 10 10 10 10 10 10 9 9 10 10 10 10 11 11 12 12 12 12 12 13 13 13 13 13 14
4 5 5 5 7 7 8 8 8 8 8 9 9 10 10 10 11 11 11 11 11 11 11 11 11 11 11 11 11 11 12 13 13 13 13 13 13 14 14 14 14 15 15
5 5 5 6 7 8 8 9 9 9 9 10 10 10 11 12 12 12 12 12 12 12 12 13 12 12 12 12 12 13 13 14 14 13 13 14 14 14 15 15 16 16 16
5 5 6 7 8 9 9 10 10 10 11 11 12 12 12 13 14 13 14 14 14 14 14 15 14 13 13 13 14 14 14 14 15 15 15 15 15 16 16 17 17 17 17
Wind_Direction
30 31 34 39 55 83 110 130 160 174 183 196 207 211 212 216 223 223 223 230 232 236 240 244 244 243 241 246 246 248 247 247 239 236 232 230 233 231 230 234 235 239 240
34 35 40 53 67 86 106 115 135 157 170 192 204 205 207 213 218 217 222 225 229 233 236 239 243 247 241 247 248 248 246 241 236 233 231 229 231 233 239 239 240 241 240
32 33 44 53 68 86 104 116 129 141 158 173 191 192 199 205 210 210 214 221 223 227 231 238 243 246 244 246 243 243 242 236 233 229 229 230 234 235 236 238 244 247 246
36 46 51 59 68 82 90 101 120 137 151 163 180 188 193 201 209 210 214 217 220 224 227 234 241 248 247 243 238 237 238 232 232 225 228 234 234 233 236 239 243 247 249
37 46 51 53 65 78 88 103 111 132 139 152 169 181 191 205 212 212 212 212 215 219 224 235 240 243 243 242 239 233 227 222 231 230 237 237 234 234 240 240 242 242 246
37 45 48 49 60 64 79 99 117 142 133 144 157 172 187 207 216 213 210 208 220 223 227 239 254 246 240 237 232 233 227 225 232 239 243 242 238 240 243 241 241 243 243
38 46 49 52 58 59 66 87 113 115 120 131 132 137 175 197 195 197 202 210 218 212 225 243 246 249 241 235 229 229 232 238 240 244 250 241 239 242 243 244 243 246 246
43 47 50 52 61 64 65 76 116 117 115 117 123 122 121 149 164 183 189 197 207 215 224 239 236 236 246 257 247 239 234 237 235 244 249 241 240 244 244 246 245 247 247
45 46 47 46 57 62 69 76 94 106 109 113 109 109 103 115 130 154 180 195 203 218 231 242 249 251 258 257 253 257 250 251 239 237 248 252 250 244 245 241 246 251 251
43 47 49 48 49 50 59 66 81 105 108 99 89 87 94 89 100 124 152 194 213 234 250 254 261 249 245 250 247 250 247 247 238 241 253 255 252 248 249 248 256 255 252
42 45 50 50 48 45 43 54 63 80 101 100 89 80 88 77 76 84 79 152 224 252 266 247 260 270 264 254 250 251 249 250 242 262 262 255 245 243 244 253 260 261 259
44 45 44 46 47 46 44 55 58 76 90 94 86 83 79 69 64 62 65 70 73 55 18 193 263 273 272 268 263 259 257 266 265 270 262 252 247 250 259 258 257 265 265
44 45 46 43 46 44 48 59 66 69 80 87 88 78 73 68 61 58 66 69 66 58 62 300 248 263 270 257 249 252 259 270 279 283 274 262 263 267 267 269 265 262 260
45 47 45 41 41 40 46 60 69 72 77 81 79 76 70 67 65 65 64 61 52 48 79 113 260 258 240 252 257 259 264 276 284 284 274 269 270 272 273 273 275 273 260
44 47 46 41 39 41 45 58 64 71 71 72 72 67 67 65 67 65 54 46 39 35 107 248 284 303 263 273 273 269 272 278 282 283 279 274 270 270 270 268 271 272 265
39 44 45 45 43 44 45 50 58 64 64 66 65 59 58 57 55 57 44 37 29 25 37 355 325 328 322 298 299 287 290 292 291 293 289 278 272 270 274 275 271 270 264
35 38 42 43 44 47 50 53 56 60 58 58 57 54 50 48 45 43 39 37 28 19 11 351 343 325 329 321 311 303 304 302 299 302 297 288 283 278 278 280 280 278 274
36 40 43 43 44 47 52 57 58 60 58 54 51 51 49 44 39 36 32 33 28 15 3 353 341 326 316 320 315 315 309 307 307 307 304 299 293 286 281 282 284 282 277
34 38 39 39 39 46 52 55 54 51 49 42 35 33 30 30 26 22 18 14 12 8 356 346 337 314 306 310 310 310 306 304 303 301 301 300 296 292 285 282 283 287 285
32 34 36 35 34 37 46 53 48 40 32 29 23 20 14 13 12 11 9 5 360 351 342 338 328 321 318 317 313 310 307 308 304 301 301 299 296 293 288 286 287 287 287
27 28 30 32 30 28 29 33 31 24 18 15 9 9 4 360 359 359 355 353 349 344 337 331 326 318 312 307 306 305 304 305 305 300 297 296 294 291 288 289 290 290 287
16 19 21 27 25 21 20 17 9 5 2 359 359 358 354 350 346 342 338 337 336 335 332 327 319 313 310 304 302 302 303 303 300 300 298 296 293 289 288 291 292 290 291
357 6 7 11 14 13 12 12 9 5 0 355 351 351 350 348 344 339 334 328 324 322 322 320 317 314 309 308 307 303 303 306 300 299 299 295 292 291 291 289 289 288 290
334 345 349 352 355 358 1 0 357 356 355 353 348 345 342 338 335 333 330 326 322 318 314 312 312 310 305 306 306 304 305 303 303 303 301 296 294 292 292 293 291 289 290
314 328 336 339 342 343 345 347 346 345 343 341 339 335 332 330 329 328 325 324 322 317 313 308 307 304 302 303 303 302 303 303 302 301 301 299 297 295 293 293 294 294 293
303 311 322 326 329 330 332 334 338 338 336 335 334 331 328 327 325 323 320 317 315 313 311 308 304 302 300 298 298 299 299 299 298 299 300 299 298 296 293 292 290 291 292
Height
5878 5876 5874 5873 5872 5871 5870 5870 5870 5871 5871 5872 5872 5872 5873 5873 5874 5874 5875 5875 5875 5876 5876 5876 5876 5876 5876 5876 5875 5875 5875 5875 5876 5876 5878 5879 5880 5881 5882 5882 5883 5884 5884
5878 5876 5874 5873 5872 5871 5871 5871 5870 5870 5871 5871 5871 5871 5872 5872 5872 5873 5873 5874 5874 5874 5874 5875 5875 5875 5874 5874 5874 5874 5873 5874 5874 5875 5876 5878 5879 5880 5880 5881 5882 5882 5883
5878 5875 5874 5873 5872 5872 5871 5871 5871 5870 5870 5870 5870 5870 5870 5871 5871 5872 5872 5872 5872 5873 5873 5873 5874 5873 5873 5872 5872 5872 5872 5873 5873 5874 5875 5876 5877 5878 5879 5880 5880 5881 5881
5878 5876 5874 5873 5872 5872 5871 5871 5870 5870 5870 5870 5870 5869 5870 5870 5870 5870 5871 5871 5871 5871 5872 5872 5872 5872 5872 5871 5871 5871 5871 5872 5872 5873 5874 5875 5876 5877 5877 5878 5879 5879 5880
5878 5876 5875 5873 5873 5872 5871 5871 5870 5870 5870 5869 5869 5869 5868 5868 5868 5869 5869 5869 5870 5871 5871 5871 5871 5871 5871 5870 5870 5871 5871 5872 5872 5872 5873 5874 5875 5875 5876 5877 5877 5878 5878
5878 5876 5875 5874 5873 5872 5871 5871 5870 5869 5869 5869 5868 5868 5867 5867 5867 5867 5868 5868 5869 5870 5870 5870 5870 5870 5870 5870 5870 5870 5871 5871 5871 5872 5872 5873 5874 5874 5875 5875 5876 5876 5876
5879 5877 5876 5874 5873 5872 5871 5870 5869 5869 5869 5868 5868 5867 5867 5866 5865 5865 5867 5868 5868 5869 5869 5869 5869 5869 5869 5869 5869 5869 5870 5870 5870 5871 5871 5872 5872 5873 5873 5874 5874 5874 5874
5880 5878 5876 5875 5873 5872 5871 5870 5869 5869 5869 5868 5868 5867 5866 5865 5865 5865 5866 5867 5868 5868 5869 5869 5869 5868 5868 5868 5869 5869 5869 5870 5869 5870 5870 5871 5871 5871 5872 5872 5872 5872 5872
5881 5879 5878 5876 5874 5872 5871 5870 5869 5869 5868 5868 5867 5867 5866 5866 5865 5866 5866 5867 5867 5868 5868 5868 5868 5868 5868 5867 5867 5868 5868 5868 5868 5869 5869 5870 5870 5870 5870 5870 5870 5870 5870
5883 5880 5878 5877 5875 5873 5871 5869 5869 5868 5868 5868 5868 5867 5867 5867 5866 5866 5867 5867 5867 5868 5868 5868 5868 5867 5867 5867 5867 5867 5867 5867 5867 5867 5867 5868 5868 5868 5868 5868 5868 5868 5868
5884 5882 5880 5878 5876 5874 5871 5869 5868 5867 5867 5868 5868 5868 5868 5867 5867 5867 5867 5867 5867 5867 5867 5867 5868 5867 5867 5867 5867 5867 5866 5866 5865 5866 5866 5867 5867 5866 5866 5866 5866 5865 5863
5886 5884 5882 5879 5877 5874 5872 5869 5868 5867 5867 5868 5869 5869 5868 5868 5868 5868 5867 5867 5867 5867 5867 5867 5867 5867 5867 5867 5866 5866 5866 5865 5865 5865 5865 5865 5865 5865 5865 5865 5864 5861 5860
5887 5885 5883 5881 5878 5876 5873 5870 5869 5869 5869 5869 5869 5870 5869 5869 5869 5868 5868 5868 5867 5867 5867 5867 5867 5867 5866 5866 5866 5866 5866 5865 5865 5864 5864 5864 5864 5863 5863 5863 5862 5860 5859
5889 5887 5884 5882 5880 5878 5876 5873 5872 5871 5871 5871 5871 5871 5871 5870 5870 5869 5869 5868 5868 5868 5867 5867 5867 5867 5866 5866 5865 5865 5865 5865 5864 5863 5863 5862 5862 5862 5862 5862 5861 5860 5859
5890 5888 5886 5884 5882 5880 5878 5876 5875 5874 5873 5873 5873 5872 5872 5871 5870 5870 5869 5869 5868 5868 5867 5867 5867 5866 5866 5865 5865 5864 5864 5864 5863 5862 5861 5860 5860 5860 5860 5860 5860 5859 5859
5891 5889 5888 5886 5884 5882 5881 5879 5878 5877 5876 5875 5874 5873 5873 5872 5872 5871 5870 5869 5868 5868 5868 5867 5867 5866 5866 5865 5864 5864 5863 5862 5862 5861 5860 5859 5859 5859 5859 5859 5858 5858 5857
5893 5891 5889 5887 5886 5884 5882 5881 5880 5879 5878 5877 5876 5875 5874 5873 5873 5872 5871 5870 5869 5868 5867 5867 5866 5866 5865 5865 5864 5863 5863 5862 5861 5860 5859 5858 5857 5857 5857 5857 5856 5856 5856
5894 5892 5890 5889 5887 5885 5884 5883 5882 5881 5880 5879 5877 5876 5875 5874 5874 5873 5872 5871 5870 5869 5868 5867 5866 5865 5865 5864 5863 5863 5862 5861 5860 5859 5858 5857 5856 5856 5855 5855 5854 5854 5854
5895 5893 5891 5890 5888 5887 5885 5884 5883 5882 5881 5880 5879 5877 5876 5875 5874 5873 5872 5871 5870 5869 5868 5866 5865 5865 5864 5863 5862 5862 5861 5860 5859 5858 5857 5856 5855 5854 5854 5853 5852 5852 5851
5896 5894 5893 5891 5890 5888 5887 5886 5885 5883 5882 5881 5880 5878 5877 5876 5875 5874 5873 5871 5870 5868 5867 5866 5865 5864 5863 5863 5862 5861 5860 5859 5858 5857 5855 5854 5853 5852 5852 5851 5850 5850 5849
5897 5895 5894 5892 5891 5890 5888 5887 5885 5884 5883 5881 5880 5879 5877 5876 5875 5874 5873 5871 5870 5868 5867 5866 5864 5864 5863 5862 5861 5860 5859 5857 5856 5855 5853 5852 5851 5850 5849 5849 5848 5847 5846
5898 5896 5895 5893 5892 5890 5889 5887 5886 5884 5883 5882 5880 5879 5877 5876 5875 5873 5872 5871 5869 5868 5866 5865 5864 5862 5861 5860 5859 5858 5857 5856 5854 5853 5851 5850 5849 5848 5847 5846 5845 5844 5842
5898 5897 5895 5894 5892 5891 5889 5888 5886 5884 5883 5882 5880 5879 5877 5876 5874 5873 5871 5870 5868 5866 5865 5863 5862 5861 5860 5858 5857 5856 5855 5853 5852 5851 5849 5848 5846 5845 5844 5843 5842 5840 5839
5898 5897 5896 5894 5893 5891 5890 5888 5886 5885 5883 5881 5880 5878 5876 5875 5873 5871 5870 5868 5866 5865 5863 5862 5860 5859 5858 5856 5855 5854 5853 5851 5849 5848 5847 5845 5844 5842 5841 5840 5839 5837 5836
5897 5896 5895 5894 5893 5891 5890 5888 5886 5884 5883 5881 5879 5877 5875 5873 5872 5870 5868 5866 5865 5863 5861 5860 5858 5856 5855 5854 5853 5851 5850 5848 5847 5845 5844 5842 5841 5839 5838 5836 5835 5833 5832
5896 5895 5894 5893 5892 5891 5889 5887 5885 5883 5882 5880 5878 5876 5874 5872 5870 5868 5866 5864 5862 5860 5859 5857 5855 5854 5852 5851 5850 5848 5847 5845 5843 5842 5840 5838 5837 5835 5834 5832 5831 5830 5828